User: anonymous   Login
Location: Unspecified
(0.0000°N, 0.0000°E)
Time: 01:33:19
(UTC+00:00)
Language:

Oscar 10/S400 - Orbit

View from above orbital plane
View from above orbital plane
View from above satellite
View from above satellite

Ground track
Ground track

The orbit data is extracted from the following two-line orbital elements,

1 14129U 83058B   17117.33177528 -.00000375 +00000-0 +00000-0 0  9990
2 14129 026.9589 042.3754 6022677 291.9862 329.8017 02.05872997226773
Epoch (UTC): 27 April 2017 07:57:45
Eccentricity: 0.6022677
inclination: 26.9589°
perigee height: 4003 km
apogee height: 35443 km
right ascension of ascending node: 42.3754°
argument of perigee: 291.9862°
revolutions per day: 2.05872997
mean anomaly at epoch: 329.8017°
orbit number at epoch: 22677

The dashed part of the orbit path shows where the satellite is in the earth's shadow,  

DLR